Simultaneous Nadir Overpasses (SNOs) Predictions

Prediction of SNOs between AQUA and METOP-C Satellite Orbit:

Table of predicted SNOs for the next 14.0 days since TLE Epoch: 3/27/2021
Index Date (AQUA) Time (AQUA) Lat,Lon (AQUA) SZA (AQUA ) Date (METOP-C) Time (METOP-C) Lat,Lon (METOP-C) SZA (METOP-C ) Distance(km) Time Diff (sec)
1 03/29/2021 01:54:58 -73.70, -34.22 109.69 03/29/2021 01:54:01 -73.72, -34.13 109.67 3.47 57
2 03/29/2021 02:44:27 73.76, 133.29 70.36 03/29/2021 02:44:41 73.73, 133.24 70.34 3.30 14
3 03/29/2021 03:34:03 -74.32, -60.34 109.05 03/29/2021 03:35:10 -74.34, -57.94 109.12 71.95 67
4 03/31/2021 21:29:13 -73.70, 32.22 110.79 03/31/2021 21:28:24 -73.70, 32.24 110.78 0.79 49
5 03/31/2021 22:18:42 73.76,-160.28 69.27 03/31/2021 22:19:03 73.77,-160.27 69.27 0.75 21
6 04/03/2021 17:03:27 -73.71, 98.64 111.87 04/03/2021 17:02:46 -73.68, 98.60 111.89 3.19 41
7 04/03/2021 17:52:56 73.77, -93.87 68.19 04/03/2021 17:53:25 73.75, -93.91 68.17 2.84 29
8 04/06/2021 12:37:42 -73.73, 165.04 112.93 04/06/2021 12:37:08 -73.71, 165.07 112.94 2.03 34
9 04/06/2021 13:27:11 73.79, -27.48 67.14 04/06/2021 13:27:47 73.78, -27.43 67.12 2.20 36
10 04/09/2021 08:11:56 -73.70,-128.47 114.01 04/09/2021 08:11:31 -73.69,-128.58 114.02 3.89 25
11 04/09/2021 09:01:25 73.77, 39.01 66.06 04/09/2021 09:02:10 73.76, 38.92 66.04 3.48 45



Historial Predications of SNOs between AQUA and METOP-C
